Weather History for South Hill, VA

Change the Weather History Date:

Tuesday, November 20, 2012

  Actual Average (KEMV) Record (KEMV)
Temperature  
Mean Temperature 48 °F -  
Max Temperature 60 °F 58 °F 75 °F (1991)
Min Temperature 35 °F 36 °F 24 °F (1990)
Degree Days  
Heating Degree Days 16    
Moisture  
Dew Point 43 °F    
Average Humidity 82    
Maximum Humidity 100    
Minimum Humidity 55    
Precipitation  
Precipitation 0.00 in - - ()
Sea Level Pressure  
Sea Level Pressure 30.17 in    
Wind  
Wind Speed 4 mph (North)    
Max Wind Speed 8 mph    
Max Gust Speed -    
Visibility 10 miles    
Events      
Averages and records for this station are not official NWS values.
T = Trace of Precipitation, MM = Missing Value Source: NWS Daily Summary

Daily Weather History Graph

Daily Weather History Graph

Search for Another Location

Airport:

Trip Planner

Search our weather history database for the weather conditions in past years. The results will help you decide how hot, cold, wet, or windy it might be!

Date:

Astronomy

Nov. 20, 2012 Rise Set
Actual Time 6:55 AM EST 4:59 PM EST
Civil Twilight 6:27 AM EST 5:27 PM EST
Nautical Twilight 5:56 AM EST 5:59 PM EST
Astronomical Twilight 5:25 AM EST 6:30 PM EST
Moon 12:34 PM EST (11/20) No Moon Set
Length of Visible Light 10h 59m
Length of Day
10h 04m
Waxing Crescent, 51% of the Moon is Illuminated
Nov 20
Waxing Crescent
Nov 28
Full
Dec 6
Last Quarter
Dec 13
New
Dec 20
First Quarter

Hourly Weather History & Observations

Time (EST) Temp. Windchill Dew Point Humidity Pressure Visibility Wind Dir Wind Speed Gust Speed Precip Events Conditions
12:15 AM 46.4 °F 43.5 °F 42.8 °F 87% 30.24 in 10.0 mi NNW 5.8 mph - N/A   Overcast
12:35 AM 46.4 °F 42.4 °F 42.8 °F 87% 30.22 in 10.0 mi NNW 8.1 mph - N/A   Overcast
12:55 AM 46.4 °F 42.4 °F 42.8 °F 87% 30.22 in 10.0 mi North 8.1 mph - N/A   Overcast
1:15 AM 46.4 °F 43.5 °F 42.8 °F 87% 30.22 in 10.0 mi NNE 5.8 mph - N/A   Overcast
1:35 AM 46.4 °F 45.2 °F 42.8 °F 87% 30.22 in 10.0 mi North 3.5 mph - N/A   Overcast
1:55 AM 46.4 °F 43.5 °F 42.8 °F 87% 30.21 in 10.0 mi North 5.8 mph - N/A   Overcast
2:15 AM 46.4 °F 45.2 °F 42.8 °F 87% 30.21 in 10.0 mi North 3.5 mph - N/A   Overcast
2:35 AM 46.4 °F - 42.8 °F 87% 30.21 in 10.0 mi Calm Calm - N/A   Overcast
3:15 AM 44.6 °F - 41.0 °F 87% 30.21 in 10.0 mi Calm Calm - N/A   Overcast
3:35 AM 44.6 °F 42.2 °F 39.2 °F 81% 30.21 in 10.0 mi NNW 4.6 mph - N/A   Overcast
7:35 AM 44.6 °F 41.4 °F 39.2 °F 81% 30.21 in 10.0 mi North 5.8 mph - N/A   Overcast
7:55 AM 44.6 °F 41.4 °F 41.0 °F 87% 30.21 in 10.0 mi North 5.8 mph - N/A   Overcast
8:15 AM 44.6 °F 42.2 °F 41.0 °F 87% 30.21 in 10.0 mi North 4.6 mph - N/A   Overcast
8:35 AM 46.4 °F 43.5 °F 42.8 °F 87% 30.22 in 10.0 mi North 5.8 mph - N/A   Overcast
8:55 AM 46.4 °F 42.4 °F 42.8 °F 87% 30.21 in 10.0 mi North 8.1 mph - N/A   Overcast
9:15 AM 48.2 °F - 42.8 °F 82% 30.22 in 10.0 mi North 6.9 mph - N/A   Overcast
9:35 AM 48.2 °F - 42.8 °F 82% 30.22 in 10.0 mi North 5.8 mph - N/A   Overcast
9:55 AM 50.0 °F - 42.8 °F 76% 30.21 in 10.0 mi NNW 4.6 mph - N/A   Overcast
10:15 AM 51.8 °F - 44.6 °F 76% 30.21 in 10.0 mi Calm Calm - N/A   Overcast
10:35 AM 53.6 °F - 44.6 °F 72% 30.21 in 10.0 mi NW 3.5 mph - N/A   Overcast
10:55 AM 53.6 °F - 44.6 °F 72% 30.20 in 10.0 mi Calm Calm - N/A   Overcast
11:15 AM 53.6 °F - 44.6 °F 72% 30.20 in 10.0 mi NNW 3.5 mph - N/A   Overcast
11:35 AM 55.4 °F - 46.4 °F 72% 30.19 in 10.0 mi Calm Calm - N/A   Overcast
11:55 AM 57.2 °F - 46.4 °F 67% 30.18 in 10.0 mi NNW 3.5 mph - N/A   Overcast
12:15 PM 59.0 °F - 46.4 °F 63% 30.17 in 10.0 mi NW 3.5 mph - N/A   Mostly Cloudy
12:35 PM 57.2 °F - 46.4 °F 67% 30.16 in 10.0 mi Calm Calm - N/A   Scattered Clouds
12:55 PM 57.2 °F - 46.4 °F 67% 30.16 in 10.0 mi NNW 3.5 mph - N/A   Scattered Clouds
1:15 PM 57.2 °F - 44.6 °F 63% 30.14 in 10.0 mi NNE 4.6 mph - N/A   Mostly Cloudy
1:35 PM 57.2 °F - 46.4 °F 67% 30.14 in 7.0 mi NNE 3.5 mph - N/A   Scattered Clouds
1:55 PM 60.8 °F - 46.4 °F 59% 30.13 in 10.0 mi NNW 4.6 mph - N/A   Mostly Cloudy
2:15 PM 60.8 °F - 44.6 °F 55% 30.13 in 10.0 mi Calm Calm - N/A   Scattered Clouds
2:35 PM 59.0 °F - 44.6 °F 59% 30.13 in 10.0 mi Calm Calm - N/A   Scattered Clouds
2:55 PM 57.2 °F - 44.6 °F 63% 30.12 in 10.0 mi North 4.6 mph - N/A   Scattered Clouds
3:15 PM 57.2 °F - 44.6 °F 63% 30.12 in 10.0 mi NNE 3.5 mph - N/A   Clear
3:35 PM 57.2 °F - 44.6 °F 63% 30.12 in 10.0 mi Calm Calm - N/A   Clear
3:55 PM 55.4 °F - 44.6 °F 67% 30.12 in 10.0 mi Calm Calm - N/A   Clear
4:15 PM 55.4 °F - 44.6 °F 67% 30.12 in 10.0 mi Calm Calm - N/A   Clear
4:35 PM 53.6 °F - 44.6 °F 72% 30.12 in 10.0 mi Calm Calm - N/A   Clear
4:55 PM 53.6 °F - 44.6 °F 72% 30.12 in 10.0 mi Calm Calm - N/A   Clear
5:15 PM 51.8 °F - 44.6 °F 76% 30.11 in 10.0 mi Calm Calm - N/A   Clear
5:35 PM 48.2 °F - 44.6 °F 87% 30.12 in 10.0 mi North - - N/A   Clear
5:55 PM 48.2 °F - 44.6 °F 87% 30.13 in 10.0 mi Calm Calm - N/A   Clear
6:15 PM 46.4 °F - 44.6 °F 93% 30.14 in 10.0 mi Calm Calm - N/A   Clear
6:35 PM 46.4 °F - 44.6 °F 93% 30.14 in 10.0 mi Calm Calm - N/A   Clear
6:55 PM 44.6 °F - 42.8 °F 93% 30.15 in 10.0 mi Calm Calm - N/A   Clear
7:55 PM 42.8 °F - 41.0 °F 93% 30.16 in 10.0 mi North - - N/A   Scattered Clouds
8:15 PM 42.8 °F - 42.8 °F 100% 30.15 in 10.0 mi Calm Calm - N/A   Scattered Clouds
8:35 PM 42.8 °F - 42.8 °F 100% 30.16 in 10.0 mi Calm Calm - N/A   Clear
8:55 PM 41.0 °F 39.0 °F 41.0 °F 100% 30.16 in 10.0 mi NNW 3.5 mph - N/A   Clear
9:15 PM 41.0 °F 39.0 °F 41.0 °F 100% 30.16 in 10.0 mi North 3.5 mph - N/A   Clear
9:35 PM 39.2 °F - 39.2 °F 100% 30.16 in 10.0 mi Calm Calm - N/A   Clear
9:55 PM 39.2 °F - 39.2 °F 100% 30.16 in 10.0 mi Calm Calm - N/A   Clear
10:15 PM 37.4 °F - 37.4 °F 100% 30.16 in 10.0 mi Calm Calm - N/A   Clear
10:35 PM 39.2 °F - 39.2 °F 100% 30.16 in 10.0 mi Calm Calm - N/A   Clear
10:55 PM 37.4 °F - 37.4 °F 100% 30.16 in 10.0 mi Calm Calm - N/A   Clear
11:15 PM 37.4 °F - 37.4 °F 100% 30.16 in 10.0 mi Calm Calm - N/A   Clear
11:35 PM 37.4 °F - 37.4 °F 100% 30.15 in 1.0 mi Calm Calm - N/A   Clear
11:55 PM 35.6 °F - 35.6 °F 100% 30.15 in 10.0 mi Calm Calm - N/A   Clear